Lid_Strength_Index
0 1 1 0 0 1 1 1 0 0 1 1 2 3 3 3 3 4 3 -2 -1 -1 -0 0 -0 -1 -1 -1 -2 -1 -1 -1 -1 -1 -1 -1 -1 -1 -1 -1 -1 -1 -1
-0 -0 0 0 0 -0 0 0 0 1 2 3 3 3 3 4 4 4 4 2 -2 -1 -2 -2 -2 -1 -1 -1 -1 -2 -1 -1 -1 -1 -1 -1 -1 -1 -1 -1 -1 -1 -1
1 -0 -0 0 0 0 0 0 1 0 1 1 1 1 2 3 4 4 4 3 1 -3 -3 -3 -3 -2 -2 -1 -1 -2 -2 -1 -1 -1 -1 -1 -1 -1 -1 -1 -1 -1 -1
-1 -0 -0 0 0 0 0 0 1 2 2 2 3 2 2 3 4 4 4 3 3 2 -2 -2 -2 -2 -2 -2 -2 -2 -2 -1 -1 -1 -1 -1 -1 -1 -1 -1 -1 -1 -1
-1 -0 0 -0 0 1 1 1 1 2 2 2 2 2 2 3 3 2 3 3 2 1 0 -1 -2 -2 -2 -2 -2 -2 -2 -1 -1 -1 -1 -1 -1 -1 -1 -1 -1 -1 -1
-1 -0 -0 1 0 1 1 1 2 1 1 2 1 1 2 1 1 2 2 2 2 1 0 0 -0 -0 -2 -2 -2 -2 -2 -2 -1 -1 -1 -1 -1 -1 -1 -1 -1 -1 -1
1 -0 -0 0 0 1 1 1 2 2 2 1 2 3 4 2 1 1 1 1 1 1 1 0 -0 -0 -1 -2 -1 -2 -2 -2 -1 -1 -1 -1 -1 -1 -1 -1 -1 -1 -1
1 1 0 0 1 1 1 1 2 2 2 2 3 4 6 4 3 2 2 2 1 0 0 0 2 2 2 1 -0 -2 -2 -2 -2 -1 -1 -0 -0 -1 -1 -1 -1 -1 -2
3 2 2 2 2 1 3 3 2 2 3 2 3 3 6 7 5 3 3 2 2 2 3 2 1 1 1 2 -0 -1 -1 -1 -1 -1 -1 -1 -0 -1 -1 -1 -1 -1 -2
4 5 6 4 5 3 3 3 2 1 3 3 2 2 3 3 6 6 3 3 2 2 2 2 2 1 2 1 -1 -1 -1 -1 -1 -0 0 0 -1 -1 -1 -1 -1 -1 -1
6 6 6 6 5 4 4 4 3 3 1 2 2 2 2 2 3 5 6 4 3 3 3 2 2 2 1 0 -0 -1 -1 -1 0 -0 -0 -1 -1 -1 -1 -1 -1 -1 -1
7 6 6 6 6 6 5 4 4 3 3 1 1 2 2 4 4 5 5 5 5 3 2 2 2 1 2 1 0 -1 -1 0 1 1 1 0 0 -0 -0 -1 -1 -1 -1
8 7 7 6 6 5 5 5 5 4 4 3 3 2 2 2 2 3 4 5 6 5 5 4 3 2 2 2 1 -0 0 1 1 1 1 1 1 1 1 0 0 -0 -0
8 7 6 6 6 5 4 4 4 4 4 4 3 3 2 1 1 2 4 6 7 7 7 6 4 4 2 3 2 -1 -0 -0 -1 -0 0 1 2 2 2 2 2 2 2
6 6 6 5 4 4 4 4 3 3 3 3 2 2 3 1 2 3 3 5 7 9 7 7 5 4 3 2 1 1 1 -1 -1 -1 -0 1 2 2 3 3 3 3 3
5 4 5 5 5 4 4 3 2 2 2 2 1 1 1 1 1 1 2 4 4 4 5 4 4 3 4 3 2 2 2 -0 -1 -1 -1 1 1 2 3 3 3 3 4
4 4 4 4 5 4 3 3 3 3 3 2 2 2 2 2 3 3 4 4 5 5 6 7 6 6 6 4 3 3 2 2 2 -0 -0 -1 0 1 2 2 3 3 3
4 4 4 5 5 4 4 4 4 3 3 3 3 4 5 4 6 5 6 7 7 7 6 10 8 7 7 5 4 4 3 1 2 1 0 0 0 1 1 2 3 3 4
6 5 5 5 5 4 5 5 5 4 4 4 5 5 6 6 7 7 6 7 6 4 5 7 7 7 6 7 7 6 6 5 2 1 0 0 0 1 1 1 1 2 3
6 5 5 5 5 5 5 5 4 4 4 5 5 6 6 6 6 7 6 7 6 7 6 8 7 7 6 7 8 8 7 6 5 3 2 2 1 1 1 1 2 2 3
6 6 5 5 6 6 6 7 5 5 6 5 5 4 5 3 2 3 5 6 6 7 7 8 9 9 9 9 10 9 9 8 7 6 5 4 4 4 4 2 2 3 4
6 6 6 6 7 7 6 6 5 6 5 5 6 6 4 3 4 3 2 2 2 6 7 6 9 8 9 9 9 9 10 10 10 7 7 6 6 7 5 5 4 5 5
7 7 7 7 8 9 7 7 6 6 4 6 6 6 4 3 4 5 4 2 2 1 1 3 5 7 8 7 8 9 9 10 9 6 5 7 7 8 6 5 5 6 6
7 7 7 8 9 8 7 7 5 6 4 5 5 5 6 6 5 5 5 4 3 3 3 3 4 4 5 6 7 6 6 8 7 6 6 8 7 8 7 7 4 4 4
7 7 8 8 8 8 7 6 6 5 4 5 5 5 5 5 4 4 5 5 5 5 1 1 2 3 4 4 4 6 7 8 10 8 6 7 8 9 8 5 4 4 4
6 6 6 8 6 7 6 6 6 6 6 5 5 4 3 4 4 5 6 6 6 6 5 5 5 5 4 4 2 5 5 6 6 7 6 8 9 10 11 7 6 5 5